Location: Unspecified
(48.4880°N, 16.2230°E)
Time: 10:13:05
(UTC+00:00)

Daily predictions for brighter satellites

Satellite Brightness Start Highest point End
(mag) Time Altitude Azimuth Time Altitude Azimuth Time Altitude Azimuth
Cosmos 1328 Rocket 3.9 18:59:48 10° NNW 19:04:10 69° W 19:08:32 10° S
Cosmos 1933 4.1 19:03:55 10° NNW 19:07:57 57° W 19:11:57 10° S
Resurs 01 Rocket 1.7 19:08:46 10° SSE 19:13:08 70° ENE 19:17:33 10° N
Cosmos 1340 4.3 19:09:51 10° SW 19:13:24 38° WNW 19:16:58 10° N
Lacrosse 5 3.6 19:14:01 10° WNW 19:18:36 33° N 19:23:12 10° NE
Cosmos 1656 4.2 19:20:54 10° NNW 19:26:10 47° NE 19:31:05 12° SE
Cosmos 1782 2.9 19:23:09 10° NNW 19:27:10 79° W 19:31:10 10° S
Meteor 2-3 Rocket 4.2 19:22:48 10° SSW 19:28:34 70° WNW 19:34:24 10° N
OE (NEXTSAT) 4.5 19:25:42 10° WSW 19:29:08 55° S 19:32:34 10° E
Cosmos 1821 Rocket 4.4 19:26:26 10° SSE 19:32:08 43° E 19:37:55 10° NNE
Cosmos 1515 Rocket 4.2 19:27:55 10° NNW 19:32:18 59° W 19:36:40 10° S
Cosmos 2366 rocket 4.1 19:27:47 10° S 19:34:05 83° W 19:40:21 10° N
IRIDIUM 106 4.4 19:29:54 10° SSE 19:35:00 60° E 19:40:09 10° N
SL-8 R/B 3.7 19:31:02 10° W 19:35:54 84° SSW 19:40:37 11° ESE
EP 1 4.2 19:33:34 10° SW 19:36:32 73° SE 19:39:08 10° NE
GP-B 4.2 19:35:08 10° NNE 19:38:56 27° E 19:41:45 15° SE
Cosmos 2082 Rocket 3.9 19:37:59 12° ESE 19:39:47 14° E 19:42:36 10° ENE
Cosmos 1707 Rocket 4.3 19:39:43 10° N 19:43:49 37° ENE 19:46:47 16° SE
ERBS 2.7 19:45:25 10° SSW 19:48:31 37° SE 19:51:37 10° ENE
SL-08 R/B 4.5 19:42:31 10° S 19:48:47 85° E 19:55:01 10° N
BREEZE-M DEB (TANK) 3.4 19:48:40 10° WNW 19:53:16 27° SW 19:55:06 15° S
USA 267 3.5 19:47:53 10° NE 19:54:26 75° NNW 20:01:00 10° WSW
SPOT 5 3.3 19:51:54 17° SE 19:54:44 38° ENE 19:58:45 10° N
SPOT 1/Viking Rocket 3.6 19:54:06 15° SSE 19:58:29 75° ENE 20:03:43 10° N
ERS-1 Rocket 3.3 19:56:07 18° SE 19:59:46 53° ENE 20:04:40 10° N
Spot 2 Rocket 3.5 19:57:18 13° SSE 20:01:53 86° WSW 20:07:02 10° NNW
Cosmos 2239 Rocket 4.5 19:58:15 10° S 20:04:17 64° E 20:10:22 10° NNE
Terra 2.6 20:02:13 19° SE 20:05:06 38° ENE 20:09:30 10° N
BREEZE-M DEB (TANK) 1.7 20:03:45 10° W 20:06:38 74° N 20:07:40 24° ENE
Cosmos 1862 Rocket 4.5 20:05:18 10° N 20:09:27 35° ENE 20:11:37 22° ESE
Cosmos 1238 Rocket 4.3 20:11:04 14° E 20:11:04 14° E 20:12:36 10° NE
Cosmos 407 Rocket 4.0 20:08:09 17° SSE 20:11:52 40° ESE 20:16:48 10° NE
Cosmos 1980 Rocket 3.0 20:13:11 10° NNW 20:18:33 40° NE 20:22:08 19° ESE
Cosmos 220 Rocket 3.9 20:15:56 10° NNW 20:20:10 86° ENE 20:22:23 27° SSE
Intercosmos 25 4.3 20:20:38 10° NNW 20:26:02 53° W 20:28:54 16° SSW
Cosmos 389 Rocket 3.5 20:25:18 10° NNW 20:28:32 40° W 20:30:37 19° SSW
Cosmos 1862 4.3 20:25:59 10° SSW 20:29:53 47° WNW 20:33:50 10° N
Sich 1 3.2 20:26:20 13° SSW 20:30:18 75° W 20:34:46 10° N
USA 234 3.9 20:26:32 19° SSE 20:30:48 43° SW 20:36:59 10° WNW
Cosmos 1812 3.7 20:28:10 10° NNW 20:31:50 43° W 20:34:25 17° SSW
Cosmos 2251 Rocket 4.4 20:26:52 10° SW 20:31:58 51° WNW 20:37:09 10° NNE
Meteor 2-20 4.4 20:26:22 10° N 20:32:35 89° W 20:36:49 22° S
Cosmos 921 Rocket 4.3 20:30:35 10° N 20:34:17 28° ENE 20:35:53 22° E
CARTOSAT-1 3.6 20:33:16 26° S 20:35:40 75° WSW 20:40:00 10° NNW
Cosmos 1697 Rocket 2.6 20:31:16 10° NNW 20:36:56 87° ENE 20:39:58 29° SSE
SAR-Lupe-2 3.4 20:33:59 10° NNE 20:37:36 86° ESE 20:39:16 30° SSW
Cosmos 1933 Rocket 4.5 20:37:25 28° ESE 20:38:18 30° E 20:42:10 10° NNE
Cosmos 1666 Rocket 3.4 20:35:55 22° S 20:38:38 90° E 20:42:59 10° N
Cosmos 1833 Rocket 2.6 20:35:49 13° SSW 20:40:48 66° ESE 20:46:24 10° NNE
Cosmos 2360 4.2 20:38:01 10° NNW 20:43:49 77° ENE 20:46:44 30° SE
ATLAS 5 CENTAUR R/B 2.7 20:38:58 10° NW 20:44:34 59° SW 20:48:07 27° SSE
Cosmos 1441 Rocket 4.4 20:46:14 10° SW 20:49:51 40° WNW 20:53:27 10° N
Resurs 01 Rocket 4.2 20:47:45 10° WSW 20:50:07 14° W 20:52:31 10° NW
Cosmos 1140 Rocket 3.5 20:48:34 25° S 20:51:34 66° ESE 20:56:48 10° NNE
COSMOS 2406 3.4 20:46:46 10° SSW 20:52:32 76° WNW 20:58:19 10° NNE
Cosmos 1703 Rocket 4.3 20:52:09 10° N 20:56:15 37° ENE 20:57:16 33° ESE
Okean 1 3.8 20:52:29 10° N 20:56:23 46° ENE 20:57:09 40° ESE
Cosmos 1023 Rocket 4.4 20:55:01 23° SSW 20:58:18 77° ESE 21:03:37 10° NNE
Iridium 4 Rocket 4.4 20:58:16 25° E 20:58:55 26° E 21:02:35 10° NNE
Cosmos 676 Rocket 4.2 20:58:15 35° SSE 21:00:03 51° ESE 21:05:13 10° NNE
Lacrosse 5 3.3 20:57:55 10° NW 21:02:36 36° NNE 21:07:18 10° E
Meteor 1-4 Rocket 3.1 20:59:50 10° NNW 21:03:15 49° W 21:04:03 39° SW
Cosmos 1515 4.4 21:01:04 10° N 21:04:41 38° ENE 21:05:04 37° E
Cosmos 1818 3.8 20:59:51 10° NW 21:05:14 62° WSW 21:07:21 36° S
Cosmos 1184 Rocket 2.6 21:06:52 78° SSW 21:07:04 87° W 21:10:23 10° N
Cosmos 2369 4.0 21:04:16 10° NNW 21:09:55 61° WSW 21:12:22 33° S
SL-16 R/B 3.4 21:05:07 10° NNW 21:10:15 33° NE 21:13:18 20° E
MOS 1-B Rocket 4.2 21:05:53 10° NNE 21:11:28 44° E 21:13:01 36° SE
Cosmos 1934 Rocket 4.5 21:07:45 14° SSW 21:13:11 61° WNW 21:19:32 10° N
Meteor 1-19 Rocket 4.2 21:09:16 10° N 21:14:42 68° ENE 21:16:33 41° SE
Cosmos 1633 Rocket 4.0 21:13:53 20° SW 21:16:38 46° WNW 21:20:56 10° N
SL-8 R/B 4.2 21:13:41 10° W 21:18:11 40° SSW 21:18:33 39° SSW
Meteor 1-20 Rocket 4.3 21:17:30 30° SSW 21:20:32 86° WNW 21:26:25 10° N
Cosmos 1437 Rocket 3.0 21:17:21 10° N 21:21:08 52° ENE 21:21:20 51° E
Cosmos 2278 3.8 21:15:41 10° NNW 21:21:24 72° WSW 21:23:28 40° S
Cosmos 2082 Rocket 2.1 21:19:47 28° SSW 21:22:58 83° ESE 21:28:41 10° NNE
ERBS 3.8 21:21:42 10° W 21:24:48 36° NNW 21:27:55 10° NE
CENTAUR R/B 3.4 21:28:14 28° ESE 21:28:21 28° ESE 21:33:58 10° NE
SPOT 5 4.4 21:31:08 19° SW 21:32:58 24° W 21:36:30 10° NW
Meteor 1-18 Rocket 4.2 21:28:33 10° NNW 21:34:13 78° W 21:36:06 43° S
Cosmos 1470 Rocket 4.2 21:32:29 32° SW 21:34:13 53° WNW 21:38:34 10° N
Cosmos 1602 3.7 21:34:07 68° SW 21:34:32 78° W 21:38:28 10° N
Cosmos 468 Rocket 4.1 21:29:47 10° NNW 21:35:06 68° ENE 21:36:37 46° SE
Cosmos 2322 Rocket 3.1 21:31:02 10° NNW 21:36:24 41° NE 21:38:56 27° ESE
USA 267 4.4 21:30:52 10° ENE 21:37:01 45° N 21:43:11 10° WNW
Cosmos 1954 Rocket 4.0 21:34:46 35° SSW 21:37:04 85° WNW 21:42:27 10° NNE
NOSS 3-2 (A) 3.5 21:38:03 45° SSE 21:39:22 54° ESE 21:45:40 10° NE
Okean 1-7 2.9 21:36:24 10° N 21:40:48 87° W 21:41:19 69° S
NOSS 3-2 (C) 3.9 21:41:54 36° ESE 21:42:02 36° ESE 21:47:46 10° NE
Cosmos 2100 Rocket 4.0 21:40:31 43° SSE 21:42:29 66° E 21:48:35 10° NNE
Terra 3.2 21:41:06 23° SW 21:42:55 29° W 21:47:05 10° NW
Aureole 1 Rocket 4.5 21:39:58 20° SW 21:44:43 73° WNW 21:52:49 10° NNE
EO 1 Del DPAF 3.8 21:42:58 10° NNE 21:46:03 44° ENE 21:46:03 44° ENE
Cosmos 1238 Rocket 3.9 21:49:56 28° W 21:50:10 28° WNW 21:52:52 10° NNW
Cosmos 2360 Rocket 3.5 21:48:59 10° NNW 21:54:06 33° NE 21:57:04 21° E
Cosmos 405 Rocket 3.4 21:55:23 43° W 21:55:43 45° WNW 21:59:18 10° N
Cosmos 540 Rocket 4.1 21:51:14 10° NNW 21:56:14 47° ENE 21:57:39 37° ESE
Cosmos 2333 Rocket 4.4 21:52:35 10° N 21:56:42 19° NE 22:00:48 10° E
Meteor 1-5 Rocket 4.4 21:56:28 48° SSE 21:57:55 62° E 22:03:49 10° NNE
Cosmos 2061 Rocket 4.1 22:00:00 45° SE 22:01:37 59° E 22:07:42 10° NNE
Cosmos 1867 3.5 22:00:26 40° SW 22:02:30 89° NW 22:08:00 10° NE
Cosmos 1980 Rocket 2.9 21:57:19 10° NW 22:02:34 40° WSW 22:03:53 35° SW
ATLAS 5 CENTAUR R/B 2.2 22:02:50 10° NW 22:05:41 77° NE 22:07:09 45° ESE
Cosmos 2173 Rocket 3.9 22:04:18 46° S 22:06:22 90° NNW 22:12:33 10° N
Cosmos 1725 Rocket 4.3 22:04:56 43° SE 22:06:30 54° E 22:12:38 10° NNE
Okean 3 3.3 22:07:29 10° N 22:11:47 83° E 22:11:49 82° E
Meteor 2-4 Rocket 3.8 22:06:43 10° NNW 22:12:28 69° W 22:13:49 51° SSW
Cosmos 921 Rocket 4.0 22:08:46 10° NW 22:12:35 33° W 22:12:40 33° WSW
Thor Agena Rocket 3.5 22:08:55 10° NNE 22:13:59 78° WNW 22:15:10 53° SW
Cosmos 1500 3.4 22:15:08 64° NW 22:15:08 64° NW 22:18:31 10° N
Genesis I 4.3 22:12:16 10° NW 22:15:02 34° W 22:15:02 34° W
ALOS 2 2.4 22:20:23 83° SSW 22:20:32 87° WSW 22:24:57 10° NNW
Cosmos 2016 Rocket 3.9 22:21:20 50° S 22:23:08 84° E 22:29:32 10° N
Cosmos 1869 Rocket 3.9 22:24:33 52° WSW 22:25:01 55° WNW 22:29:24 10° N
Cosmos 1666 3.2 22:27:56 53° NE 22:27:56 53° NE 22:30:56 10° NNE
Cosmos 1802 Rocket 4.1 22:26:44 45° SSW 22:28:52 78° W 22:35:18 10° N
Cosmos 1763 Rocket 3.8 22:24:43 10° NNW 22:29:53 52° WSW 22:30:31 49° SW
USA 238 DEB 3.7 22:28:21 28° SW 22:32:08 81° NW 22:39:07 10° NE
USA 238 3.7 22:28:30 29° SW 22:32:14 81° NW 22:39:13 10° NE
Cosmos 2221 Rocket 3.6 22:29:45 10° NNW 22:34:13 72° W 22:34:15 72° WSW
Cosmos 1459 Rocket 4.3 22:32:04 38° SW 22:34:24 59° WNW 22:40:40 10° N
Cosmos 1864 Rocket 4.4 22:33:56 53° S 22:35:31 87° E 22:41:46 10° N
Meteor 1-11 Rocket 3.6 22:35:20 61° S 22:36:23 84° E 22:42:05 10° NNE
Cosmos 1850 Rocket 4.2 22:35:21 47° SW 22:36:45 67° WNW 22:42:03 10° NNE
ATLAS 3B R/B 3.3 22:37:35 35° ESE 22:37:59 35° ESE 22:43:52 10° NE
Iridium 4 Rocket 4.3 22:38:02 32° WSW 22:38:47 34° W 22:42:49 10° NNW
Lacrosse 5 1.8 22:41:00 10° NW 22:46:07 86° NE 22:46:55 63° ESE
Cosmos 1674 Rocket 3.5 22:44:21 10° N 22:48:35 75° ENE 22:48:35 75° ENE
SL-27 R/B 3.6 22:51:20 40° NNW 22:51:20 40° NNW 22:53:43 10° NNE
BREEZE-M DEB (TANK) 4.1 22:45:47 10° WNW 22:50:32 85° SSW 23:11:45 10° ESE
Cosmos 967 Rocket 4.4 22:44:21 10° NW 22:50:48 83° NE 22:52:55 45° SE
SL-16 R/B 2.5 22:49:06 10° NW 22:54:35 50° WSW 22:55:08 48° SW
Cosmos 1536 3.1 22:56:52 62° NW 22:56:52 62° NW 23:00:30 10° N
Cosmos 2084 Rocket 4.3 22:58:29 39° E 22:58:29 39° E 23:01:33 10° NE
Helios 1B rocket 3.9 22:55:29 10° NE 22:58:34 27° E 22:58:34 27° E
Cosmos 2208 Rocket 4.0 22:54:16 10° NNW 22:59:30 62° WSW 22:59:53 60° SW
SL-16 R/B 4.4 22:54:52 10° ESE 22:59:42 24° NE 23:04:34 10° N
Cosmos 2233 Rocket 3.9 22:58:12 54° S 22:59:47 85° E 23:06:09 10° N
Cosmos 2237 4.1 22:55:09 10° NNW 23:00:54 86° WSW 23:01:59 61° SSE
SL-4 R/B 3.8 23:03:41 19° ENE 23:03:41 19° ENE 23:04:47 10° ENE
Helios 1A 3.0 23:03:25 71° WNW 23:03:25 71° WNW 23:07:22 10° NNW
Cosmos 1570 Rocket 4.4 22:58:54 10° NNW 23:04:00 48° WSW 23:04:18 47° WSW
Tsikada Rocket 4.2 22:58:48 10° NNW 23:05:06 61° W 23:06:40 48° SW
Cosmos 1733 Rocket 3.2 23:07:07 61° W 23:07:08 61° WNW 23:11:30 10° N
Cosmos 2082 Rocket 4.3 23:03:18 10° W 23:07:46 23° NW 23:12:14 10° N
Cosmos 1242 Rocket 3.5 23:05:19 10° NNW 23:07:54 42° NW 23:07:54 42° NW
Meteor 2-11 Rocket 4.4 23:10:02 54° SSE 23:11:24 73° E 23:17:29 10° NNE
SL-24 DEB 4.2 23:11:30 10° N 23:16:18 76° W 23:16:39 71° SW
Cosmos 2219 Rocket 3.0 23:10:56 10° NNW 23:16:27 48° NE 23:19:22 26° ESE
Cosmos 841 Rocket 4.2 23:12:17 10° NW 23:17:06 38° WSW 23:17:11 38° WSW
CENTAUR R/B 2.8 23:15:22 33° WSW 23:18:19 70° NW 23:25:36 10° NE
USA 267 4.3 23:13:08 10° E 23:19:19 46° NNE 23:25:31 10° WNW
Cosmos 44 3.3 23:14:28 10° NW 23:19:18 67° WSW 23:19:18 67° WSW
Cosmos 1975 3.7 23:20:46 41° ENE 23:20:46 41° ENE 23:24:14 10° NNE
Cosmos 2322 Rocket 2.8 23:15:12 10° NW 23:20:27 39° WSW 23:20:43 39° WSW
Cosmos 1782 Rocket 4.3 23:20:29 41° E 23:20:29 41° E 23:24:36 10° NNE
Cosmos 1814 Rocket 4.5 23:16:09 10° NW 23:21:02 43° WSW 23:21:08 43° WSW
COSMOS 2428 3.5 23:15:55 10° NNW 23:21:27 48° NE 23:24:38 24° ESE
Cosmos 1378 3.9 23:19:23 10° NNW 23:22:19 48° NW 23:22:19 48° NW
YAOGAN 11 4.4 23:25:18 56° W 23:25:18 56° W 23:29:46 10° NNW
PSLV R/B 3.6 23:23:32 10° NNE 23:28:09 81° ESE 23:28:25 77° SSE
Cosmos 1908 Rocket 3.4 23:29:17 90° E 23:29:17 90° E 23:33:42 10° N
Cosmos 1486 Rocket 4.0 23:29:33 59° SE 23:30:06 64° ESE 23:35:17 10° NNE
Resurs 1-4 Rocket 3.8 23:26:43 10° NE 23:30:39 21° E 23:32:13 18° ESE
Landsat 4 4.0 23:28:10 10° NNE 23:31:32 65° NNW 23:31:32 65° NNW
Meteor 1-29 4.5 23:28:59 10° NNE 23:31:24 30° ENE 23:31:24 30° ENE
NOSS 3-2 (C) 4.0 23:29:18 26° WSW 23:32:38 55° NW 23:39:17 10° NE
COSMOS 2487 3.4 23:34:50 46° NNE 23:34:50 46° NNE 23:37:21 10° NNE
Cosmos 2360 Rocket 2.4 23:32:50 10° NW 23:38:20 51° WSW 23:38:47 50° SW
Okean 2 Rocket 4.5 23:40:14 27° ESE 23:40:54 28° E 23:44:44 10° NNE
Cosmos 2333 Rocket 2.3 23:36:09 10° NNW 23:41:58 78° ENE 23:44:02 41° SE
Sich 1 Rocket 4.2 23:42:14 43° ESE 23:42:33 44° E 23:46:45 10° NNE
Meteor 2-9 Rocket 4.3 23:41:33 51° SSE 23:42:43 64° E 23:48:17 10° NNE
Cosmos 1271 Rocket 3.7 23:43:39 10° NNW 23:46:24 37° WNW 23:46:24 37° WNW
Cosmos 1743 3.5 23:47:59 43° WNW 23:47:59 43° WNW 23:51:27 10° N
Cosmos 2297 Rocket 4.3 23:47:46 13° ESE 23:49:43 15° E 23:52:45 10° ENE
Cosmos 1975 Rocket 2.9 23:50:01 10° N 23:54:33 85° W 23:54:48 79° SSW
Okean 2 3.6 23:50:59 10° NNW 23:54:43 59° WNW 23:54:43 59° WNW
